Volver al catálogo

INSAT 1A

ActivoComunicacionesGEO
NORAD 13129·PAYLOAD·🇮🇳 India

Lanzado Apr 10, 1982 desde Cape Canaveral Space Force Station

Loading…

TLE

ActualizadoSource: Space-Track

Época: Sep 14, 2026, 12:39 UTC

1 13129U 82031A   26257.52764204 -.00000375  00000-0  00000-0 0  9998
2 13129   6.9366 297.7784 0008209  89.4465 276.5854  1.00273096167332

Sigue INSAT 1A en tiempo real con AllMySat

Download on the App Store